Flag for U.S.A. Weather past 2 weeks in Portsmouth, Virginia, U.S.A.

Now
79 °F

Passing clouds.


Feels Like: 81 °F
Forecast: 73 / 87 °F
Wind: 10 mph from South

Location: Norfolk Naval Air Station

Current Time: May 28, 2015 at 12:19:55 AM

Latest Report: May 27, 2015 at 10:59 PM


Visibility: 10 mi

Pressure: 30.23 "Hg

Humidity: 65%

Dew point: 66 °F

Location of PortsmouthLocation

Historic Weather in Portsmouth — Graph

°F

Portsmouth temperature yesterday

Maximum temperature yesterday: 93 °F (at 2:59 PM)
Minimum temperature yesterday: 76 °F (at 1:59 AM)
Average temperature yesterday: 83 °F

Past Weeks' High & Low Weather Summary

 TemperatureHumidityPressure
High94 °F (May 18, 3:59 PM)82% (May 19, 5:59 AM)30.47 "Hg (May 19, 5:59 AM)
Low56 °F (May 15, 2:59 AM)32% (May 25, 2:59 PM)29.80 "Hg (May 21, 3:59 PM)
Average75 °F55%30.19 "Hg
* Reported May 12 10:59 PM — May 27 10:59 PM, Portsmouth, Weather by CustomWeather, © 2015

Note: Actual official high and low records may vary slightly from our data, if they occured in-between our weather recording intervals... More about our weather records

Advertising

Portsmouth weather history for previous 24 hours

 ConditionsComfort  
Time TempWeatherWind HumidityBarometerVisibility
10:59 PM
Wed, May 27
79 °FPassing clouds.10 mph65%30.23 "Hg10 mi
9:59 PM80 °FPassing clouds.8 mph62%30.23 "Hg10 mi
8:59 PM82 °FScattered clouds.10 mph58%30.20 "Hg10 mi
7:59 PM84 °FScattered clouds.8 mph57%30.17 "Hg10 mi
6:59 PM86 °FScattered clouds.13 mph53%30.16 "Hg10 mi
5:59 PM88 °FScattered clouds.9 mph52%30.16 "Hg10 mi
4:59 PM90 °FScattered clouds.10 mph50%30.17 "Hg10 mi
3:59 PM92 °FScattered clouds.15 mph47%30.17 "Hg10 mi
2:59 PM93 °FScattered clouds.14 mph42%30.18 "Hg10 mi
1:59 PM92 °FScattered clouds.8 mph46%30.21 "Hg10 mi
12:59 PM91 °FScattered clouds.10 mph47%30.23 "Hg10 mi
11:59 AM88 °FSunny.9 mph52%30.24 "Hg10 mi
10:59 AM87 °FScattered clouds.12 mph55%30.24 "Hg10 mi
9:59 AM84 °FScattered clouds.10 mph59%30.24 "Hg10 mi
8:59 AM82 °FScattered clouds.12 mph63%30.25 "Hg10 mi
7:59 AM79 °FScattered clouds.10 mph67%30.24 "Hg10 mi
6:59 AM77 °FPartly sunny.9 mph69%30.23 "Hg10 mi
5:59 AM76 °FPartly cloudy.15 mph72%30.22 "Hg10 mi
4:59 AM76 °FPartly cloudy.8 mph72%30.22 "Hg10 mi
3:59 AM76 °FPassing clouds.9 mph69%30.22 "Hg10 mi
2:59 AM76 °FPassing clouds.12 mph69%30.23 "Hg10 mi
1:59 AM76 °FPassing clouds.12 mph69%30.24 "Hg10 mi
12:59 AM77 °FPassing clouds.13 mph66%30.25 "Hg10 mi
Weather by CustomWeather, © 2015

See weather overviewHow to use our weather pages